Location: Sungai Buloh
(3.1000°N, 113.0000°E)
Time: 16:49:07
(UTC+00:00)

RUBIN 8/PSLV - Pass Details

Date: 12 January 2026
Orbit: 593 x 628 km, 98.1° (Epoch: 10 February)

Event Time Altitude Azimuth Distance (km) Brightness Sun altitude
Rises 21:45:09 0° 8° (N) 2,819 7.8 -13.1°
Reaches altitude 10° 21:47:19 10° 5° (N) 1,923 6.9 -12.6°
Maximum altitude 21:51:28 69° 282° (WNW) 640 4.4 -11.6°
Drops below altitude 10° 21:55:40 10° 198° (SSW) 1,948 7.2 -10.6°
Sets 21:57:51 0° 196° (SSW) 2,858 8.0 -10.1°
